Voltar ao catálogo

FREGAT R/B

AtivoMEO
NORAD 39192·ROCKET BODY·🇷🇺 Russia

Lançado Jun 25, 2013 de Guiana Space Centre

Loading…

Próximas Passagens (próximas 24 horas)

TLE

AtualizadoSource: Space-Track

Época: Sep 14, 2026, 12:28 UTC

1 39192U 13031E   26257.51952992 -.00000024  00000-0  00000-0 0  9993
2 39192   0.1664 350.8611 0008911 277.4528  91.5852  5.20984135251680

Acompanhe FREGAT R/B em tempo real com AllMySat

Download on the App Store